,,PA_Meas_PMT16A,,PR_Meas_QMR101_102,,RH_Meas_QMH101,,SR_Meas_QMS101,,TA_Meas_QMH101,,GenWind,,GenWind,
time,status,PA,status,PR,status,RH,status,SR,status,TA,status,DirAvg,status,SpdAvg,
2010-10-28, 00:00:05,VALID,918.049,VALID,0,VALID,94.6905,VALID,0,VALID,19.6413,VALID,22,VALID,0.1875,
2010-10-28, 00:01:05,VALID,918.041,VALID,0,VALID,94.6752,VALID,0,VALID,19.6818,VALID,22,VALID,0.0523437,
2010-10-28, 00:02:05,VALID,918.019,VALID,0,VALID,94.6066,VALID,0.107441,VALID,19.6818,VALID,22,VALID,0.232422,
2010-10-28, 00:03:05,VALID,918.008,VALID,0,VALID,94.5837,VALID,0,VALID,19.6818,VALID,22,VALID,0.421484,
2010-10-28, 00:04:05,VALID,917.983,VALID,0,VALID,94.5685,VALID,0.107441,VALID,19.6818,VALID,22,VALID,0.527344,
2010-10-28, 00:05:05,VALID,917.968,VALID,0,VALID,94.5609,VALID,0,VALID,19.6413,VALID,22,VALID,0.727734,
2010-10-28, 00:06:05,VALID,917.957,VALID,0,VALID,94.7133,VALID,0.107441,VALID,19.6623,VALID,22,VALID,0.460938,
2010-10-28, 00:07:05,VALID,917.946,VALID,0,VALID,94.7057,VALID,0,VALID,19.6428,VALID,22,VALID,0.432813,
2010-10-28, 00:08:05,VALID,917.943,VALID,0,VALID,94.82,VALID,0,VALID,19.6233,VALID,22,VALID,0.429297,
2010-10-28, 00:09:05,VALID,917.939,VALID,0,VALID,94.9801,VALID,0,VALID,19.6233,VALID,22,VALID,0.26875,
2010-10-28, 00:10:05,VALID,917.939,VALID,0,VALID,94.9954,VALID,0,VALID,19.6233,VALID,22,VALID,0,
2010-10-28, 00:11:05,VALID,917.913,VALID,0,VALID,94.9954,VALID,0,VALID,19.6233,VALID,22,VALID,0.224609,
2010-10-28, 00:12:05,VALID,917.872,VALID,0,VALID,95.0106,VALID,0,VALID,19.6038,VALID,22,VALID,0,
2010-10-28, 00:13:05,VALID,917.896,VALID,0,VALID,95.0792,VALID,0,VALID,19.6443,VALID,22,VALID,0,
2010-10-28, 00:14:05,VALID,917.858,VALID,0,VALID,95.0106,VALID,0,VALID,19.6248,VALID,22,VALID,0.386328,
2010-10-28, 00:15:05,VALID,917.87,VALID,0,VALID,95.0335,VALID,0,VALID,19.5843,VALID,22,VALID,0.0148437,
2010-10-28, 00:16:05,VALID,917.855,VALID,0,VALID,95.0564,VALID,0,VALID,19.6038,VALID,22,VALID,0.299219,
2010-10-28, 00:17:05,VALID,917.856,VALID,0,VALID,94.942,VALID,0,VALID,19.5858,VALID,22,VALID,0,
2010-10-28, 00:18:05,VALID,917.821,VALID,0,VALID,94.8734,VALID,0,VALID,19.5663,VALID,22,VALID,0.557031,
2010-10-28, 00:19:05,VALID,917.814,VALID,0,VALID,94.9573,VALID,0,VALID,19.5468,VALID,22,VALID,0.292578,
2010-10-28, 00:20:05,VALID,917.805,VALID,0,VALID,95.064,VALID,0,VALID,19.5663,VALID,22,VALID,0.278125,
2010-10-28, 00:21:05,VALID,917.78,VALID,0,VALID,94.9573,VALID,0,VALID,19.5663,VALID,22,VALID,0.418359,
2010-10-28, 00:22:05,VALID,917.784,VALID,0,VALID,94.9344,VALID,0,VALID,19.5663,VALID,22,VALID,0.479688,
2010-10-28, 00:23:05,VALID,917.75,VALID,0,VALID,94.9344,VALID,0,VALID,19.5468,VALID,22,VALID,0.448828,
2010-10-28, 00:24:05,VALID,917.784,VALID,0,VALID,94.9192,VALID,0,VALID,19.5468,VALID,22,VALID,0.375,
2010-10-28, 00:25:05,VALID,917.753,VALID,0,VALID,94.8048,VALID,0,VALID,19.5258,VALID,22,VALID,0.4375,
2010-10-28, 00:26:05,VALID,917.751,VALID,0,VALID,94.8582,VALID,0,VALID,19.5258,VALID,22,VALID,0.406641,
2010-10-28, 00:27:05,VALID,917.741,VALID,0,VALID,94.8353,VALID,0,VALID,19.5258,VALID,22,VALID,0.364062,
2010-10-28, 00:28:05,VALID,917.743,VALID,0,VALID,94.8582,VALID,0,VALID,19.5663,VALID,22,VALID,0.484766,
2010-10-28, 00:29:05,VALID,917.741,VALID,0,VALID,94.8429,VALID,0,VALID,19.5468,VALID,22,VALID,0.543359,
2010-10-28, 00:30:05,VALID,917.708,VALID,0,VALID,94.8582,VALID,0,VALID,19.5663,VALID,22,VALID,0.232422,
2010-10-28, 00:31:05,VALID,917.723,VALID,0,VALID,94.8353,VALID,0,VALID,19.5468,VALID,22,VALID,0.211328,
2010-10-28, 00:32:05,VALID,917.713,VALID,0,VALID,94.8505,VALID,0,VALID,19.5273,VALID,22,VALID,0.155469,
2010-10-28, 00:33:05,VALID,917.719,VALID,0,VALID,94.9573,VALID,0,VALID,19.5273,VALID,22,VALID,0.213672,
2010-10-28, 00:34:05,VALID,917.738,VALID,0,VALID,94.9039,VALID,0,VALID,19.5258,VALID,22,VALID,0.410547,
2010-10-28, 00:35:05,VALID,917.731,VALID,0,VALID,94.8505,VALID,0,VALID,19.5063,VALID,22,VALID,0.445703,
2010-10-28, 00:36:05,VALID,917.705,VALID,0,VALID,94.881,VALID,0,VALID,19.5078,VALID,22,VALID,0.279297,
2010-10-28, 00:37:05,VALID,917.707,VALID,0,VALID,94.9268,VALID,0,VALID,19.4868,VALID,22,VALID,0.469141,
2010-10-28, 00:38:05,VALID,917.738,VALID,0,VALID,95.0335,VALID,0,VALID,19.5078,VALID,22,VALID,0.43125,
2010-10-28, 00:39:05,VALID,917.696,VALID,0,VALID,95.003,VALID,0,VALID,19.5258,VALID,22,VALID,0.322266,
2010-10-28, 00:40:05,VALID,917.688,VALID,0,VALID,94.9878,VALID,0,VALID,19.5468,VALID,22,VALID,0.346094,
2010-10-28, 00:41:05,VALID,917.669,VALID,0,VALID,94.9039,VALID,0,VALID,19.5258,VALID,22,VALID,0.738281,
2010-10-28, 00:42:05,VALID,917.663,VALID,0,VALID,94.7819,VALID,0,VALID,19.5468,VALID,22,VALID,0.765625,
2010-10-28, 00:43:05,VALID,917.62,VALID,0,VALID,94.6676,VALID,0,VALID,19.5453,VALID,22,VALID,0.789453,
2010-10-28, 00:44:05,VALID,917.63,VALID,0,VALID,94.5761,VALID,0,VALID,19.5258,VALID,22,VALID,0.776563,
2010-10-28, 00:45:05,VALID,917.614,VALID,0,VALID,94.4846,VALID,0,VALID,19.5468,VALID,22,VALID,0.748828,
2010-10-28, 00:46:05,VALID,917.619,VALID,0,VALID,94.5304,VALID,0,VALID,19.5078,VALID,22,VALID,0.351172,
2010-10-28, 00:47:05,VALID,917.584,VALID,0,VALID,94.6828,VALID,0,VALID,19.4883,VALID,22,VALID,0.487109,
2010-10-28, 00:48:05,VALID,917.552,VALID,0,VALID,94.8124,VALID,0,VALID,19.4883,VALID,22,VALID,0.564062,
2010-10-28, 00:49:05,VALID,917.556,VALID,0,VALID,94.8734,VALID,0,VALID,19.4883,VALID,22,VALID,0.557422,
2010-10-28, 00:50:05,VALID,917.538,VALID,0,VALID,94.8734,VALID,0,VALID,19.5078,VALID,22,VALID,0.472656,
2010-10-28, 00:51:05,VALID,917.499,VALID,0,VALID,94.82,VALID,0,VALID,19.4868,VALID,22,VALID,0.514063,
2010-10-28, 00:52:05,VALID,917.494,VALID,0,VALID,94.7286,VALID,0,VALID,19.5063,VALID,22,VALID,0.388281,
2010-10-28, 00:53:05,VALID,917.494,VALID,0,VALID,94.5761,VALID,0,VALID,19.5468,VALID,22,VALID,0.0371094,
2010-10-28, 00:54:05,VALID,917.485,VALID,0,VALID,94.4389,VALID,0,VALID,19.5273,VALID,22,VALID,0.358594,
2010-10-28, 00:55:05,VALID,917.44,VALID,0,VALID,94.538,VALID,0,VALID,19.5273,VALID,22,VALID,0.255859,
2010-10-28, 00:56:05,VALID,917.441,VALID,0,VALID,94.5609,VALID,0,VALID,19.5273,VALID,22,VALID,0.796875,
2010-10-28, 00:57:05,VALID,917.414,VALID,0,VALID,94.538,VALID,0,VALID,19.4673,VALID,22,VALID,0.386719,
2010-10-28, 00:58:05,VALID,917.417,VALID,0,VALID,94.5837,VALID,0,VALID,19.5078,VALID,22,VALID,0.396094,
2010-10-28, 00:59:05,VALID,917.396,VALID,0,VALID,94.5837,VALID,0,VALID,19.5078,VALID,22,VALID,0.232422,
2010-10-28, 01:00:05,VALID,917.339,VALID,0,VALID,94.5685,VALID,0,VALID,19.5273,VALID,22,VALID,0,
2010-10-28, 01:01:05,VALID,917.341,VALID,0,VALID,94.4617,VALID,0,VALID,19.4868,VALID,22,VALID,0.130859,
2010-10-28, 01:02:05,VALID,917.327,VALID,0,VALID,94.3321,VALID,0,VALID,19.5078,VALID,22,VALID,0,
2010-10-28, 01:03:05,VALID,917.322,VALID,0,VALID,94.2788,VALID,0,VALID,19.5273,VALID,22,VALID,0,
2010-10-28, 01:04:05,VALID,917.294,VALID,0,VALID,94.3245,VALID,0,VALID,19.5063,VALID,22,VALID,0,
2010-10-28, 01:05:05,VALID,917.298,VALID,0,VALID,94.2254,VALID,0,VALID,19.5258,VALID,22,VALID,0,
2010-10-28, 01:06:05,VALID,917.267,VALID,0,VALID,94.2483,VALID,0,VALID,19.5468,VALID,22,VALID,0.0167969,
2010-10-28, 01:07:05,VALID,917.26,VALID,0,VALID,94.1644,VALID,0,VALID,19.5453,VALID,22,VALID,0,
2010-10-28, 01:08:05,VALID,917.219,VALID,0,VALID,94.0272,VALID,0,VALID,19.5468,VALID,22,VALID,0.371094,
2010-10-28, 01:09:05,VALID,917.218,VALID,0,VALID,93.9052,VALID,0,VALID,19.5258,VALID,22,VALID,0.182422,
2010-10-28, 01:10:05,VALID,917.206,VALID,0,VALID,93.7299,VALID,0,VALID,19.5273,VALID,22,VALID,0.223047,
2010-10-28, 01:11:05,VALID,917.205,VALID,0,VALID,93.8214,VALID,0,VALID,19.5078,VALID,22,VALID,0.299219,
2010-10-28, 01:12:05,VALID,917.193,VALID,0,VALID,93.8976,VALID,0,VALID,19.4883,VALID,22,VALID,0.203516,
2010-10-28, 01:13:05,VALID,917.157,VALID,0,VALID,94.0043,VALID,0,VALID,19.4478,VALID,22,VALID,1.04531,
2010-10-28, 01:14:05,VALID,917.155,VALID,0,VALID,93.8443,VALID,0,VALID,19.4883,VALID,22,VALID,0.751562,
2010-10-28, 01:15:05,VALID,917.157,VALID,0,VALID,93.646,VALID,0,VALID,19.4868,VALID,22,VALID,0.680078,
2010-10-28, 01:16:05,VALID,917.149,VALID,0,VALID,93.5698,VALID,0,VALID,19.4673,VALID,22,VALID,0.803516,
2010-10-28, 01:17:05,VALID,917.154,VALID,0,VALID,93.7223,VALID,0.107441,VALID,19.4478,VALID,22,VALID,0.696094,
2010-10-28, 01:18:05,VALID,917.126,VALID,0,VALID,93.9129,VALID,0,VALID,19.4283,VALID,22,VALID,0.926172,
2010-10-28, 01:19:05,VALID,917.154,VALID,0,VALID,93.9357,VALID,0,VALID,19.4283,VALID,22,VALID,0.704687,
2010-10-28, 01:20:05,VALID,917.142,VALID,0,VALID,93.89,VALID,0,VALID,19.4478,VALID,22,VALID,0.51875,
2010-10-28, 01:21:05,VALID,917.15,VALID,0,VALID,93.7375,VALID,0,VALID,19.4478,VALID,22,VALID,0.732031,
2010-10-28, 01:22:05,VALID,917.151,VALID,0,VALID,93.6613,VALID,0,VALID,19.4868,VALID,22,VALID,0.451172,
2010-10-28, 01:23:05,VALID,917.125,VALID,0,VALID,93.6308,VALID,0,VALID,19.5063,VALID,22,VALID,0.3125,
2010-10-28, 01:24:05,VALID,917.126,VALID,0,VALID,93.5012,VALID,0,VALID,19.5273,VALID,22,VALID,0.633203,
2010-10-28, 01:25:05,VALID,917.112,VALID,0,VALID,93.4478,VALID,0,VALID,19.5063,VALID,22,VALID,0.531641,
2010-10-28, 01:26:05,VALID,917.112,VALID,0,VALID,93.364,VALID,0,VALID,19.5273,VALID,22,VALID,0.658984,
2010-10-28, 01:27:05,VALID,917.085,VALID,0,VALID,93.4936,VALID,0,VALID,19.5063,VALID,22,VALID,0.929297,
2010-10-28, 01:28:05,VALID,917.06,VALID,0,VALID,93.5241,VALID,0,VALID,19.5078,VALID,22,VALID,1.16523,
2010-10-28, 01:29:05,VALID,917.04,VALID,0,VALID,93.4402,VALID,0,VALID,19.5063,VALID,22,VALID,1.04102,
2010-10-28, 01:30:05,VALID,917.043,VALID,0,VALID,93.3335,VALID,0,VALID,19.5258,VALID,22,VALID,0.725781,
2010-10-28, 01:31:05,VALID,917.068,VALID,0,VALID,93.2877,VALID,0.107441,VALID,19.5468,VALID,22,VALID,0.549219,
2010-10-28, 01:32:05,VALID,917.06,VALID,0,VALID,93.2191,VALID,0,VALID,19.5453,VALID,22,VALID,0.486328,
2010-10-28, 01:33:05,VALID,917.057,VALID,0,VALID,93.12,VALID,0,VALID,19.5453,VALID,22,VALID,0.702734,
2010-10-28, 01:34:05,VALID,917.032,VALID,0,VALID,93.1429,VALID,0,VALID,19.5648,VALID,22,VALID,0.531641,
2010-10-28, 01:35:05,VALID,917.044,VALID,0,VALID,93.3564,VALID,0,VALID,19.5453,VALID,22,VALID,0.567578,
2010-10-28, 01:36:05,VALID,917.054,VALID,0,VALID,93.4097,VALID,0.107441,VALID,19.5258,VALID,22,VALID,0.473437,
2010-10-28, 01:37:05,VALID,917.055,VALID,0,VALID,93.4021,VALID,0,VALID,19.5258,VALID,22,VALID,0.444531,
2010-10-28, 01:38:05,VALID,917.059,VALID,0,VALID,93.4631,VALID,0,VALID,19.5258,VALID,22,VALID,0.497266,
2010-10-28, 01:39:05,VALID,917.045,VALID,0,VALID,93.5012,VALID,0,VALID,19.5468,VALID,22,VALID,0.632813,
2010-10-28, 01:40:05,VALID,917.068,VALID,0,VALID,93.6079,VALID,0.107441,VALID,19.5258,VALID,22,VALID,0.558594,
2010-10-28, 01:41:05,VALID,917.06,VALID,0,VALID,93.4021,VALID,0,VALID,19.5258,VALID,22,VALID,0.789063,
2010-10-28, 01:42:05,VALID,917.056,VALID,0,VALID,93.4021,VALID,0,VALID,19.5663,VALID,22,VALID,0.446094,
2010-10-28, 01:43:05,VALID,917.065,VALID,0,VALID,93.3259,VALID,0,VALID,19.5663,VALID,22,VALID,0.546094,
2010-10-28, 01:44:05,VALID,917.081,VALID,0,VALID,93.2877,VALID,0,VALID,19.5663,VALID,22,VALID,0.385938,
2010-10-28, 01:45:05,VALID,917.075,VALID,0,VALID,93.2496,VALID,0,VALID,19.5663,VALID,22,VALID,0.362891,
2010-10-28, 01:46:05,VALID,917.067,VALID,0,VALID,93.3564,VALID,0,VALID,19.5453,VALID,22,VALID,0.4625,
2010-10-28, 01:47:05,VALID,917.047,VALID,0,VALID,93.2725,VALID,0,VALID,19.5258,VALID,22,VALID,0.378906,
2010-10-28, 01:48:05,VALID,917.051,VALID,0,VALID,93.2039,VALID,0,VALID,19.5258,VALID,22,VALID,0.292969,
2010-10-28, 01:49:05,VALID,917.06,VALID,0,VALID,93.1963,VALID,0,VALID,19.5453,VALID,22,VALID,0.460156,
2010-10-28, 01:50:05,VALID,917.029,VALID,0,VALID,93.2649,VALID,0,VALID,19.5453,VALID,22,VALID,0.472656,
2010-10-28, 01:51:05,VALID,917.03,VALID,0,VALID,93.2191,VALID,0,VALID,19.5258,VALID,22,VALID,0.417969,
2010-10-28, 01:52:05,VALID,917,VALID,0,VALID,93.242,VALID,0,VALID,19.5258,VALID,22,VALID,0.389453,
2010-10-28, 01:53:05,VALID,916.96,VALID,0,VALID,93.3411,VALID,0,VALID,19.5258,VALID,22,VALID,0.479297,
2010-10-28, 01:54:05,VALID,916.985,VALID,0,VALID,93.3716,VALID,0,VALID,19.5063,VALID,22,VALID,0.422266,
2010-10-28, 01:55:05,VALID,916.949,VALID,0,VALID,93.3259,VALID,0,VALID,19.5258,VALID,22,VALID,0.254297,
2010-10-28, 01:56:05,VALID,916.908,VALID,0,VALID,93.3564,VALID,0,VALID,19.5063,VALID,22,VALID,0.109766,
2010-10-28, 01:57:05,VALID,916.916,VALID,0,VALID,93.5241,VALID,0,VALID,19.5273,VALID,22,VALID,0.123438,
2010-10-28, 01:58:05,VALID,916.901,VALID,0,VALID,93.5393,VALID,0,VALID,19.5063,VALID,22,VALID,0.150781,
2010-10-28, 01:59:05,VALID,916.908,VALID,0,VALID,93.5012,VALID,0,VALID,19.5063,VALID,22,VALID,0.225391,
2010-10-28, 02:00:05,VALID,916.868,VALID,0,VALID,93.4173,VALID,0,VALID,19.5063,VALID,22,VALID,0.217578,
2010-10-28, 02:01:05,VALID,916.827,VALID,0,VALID,93.3564,VALID,0,VALID,19.5258,VALID,22,VALID,0.241406,
2010-10-28, 02:02:05,VALID,916.846,VALID,0,VALID,93.2725,VALID,0,VALID,19.5258,VALID,22,VALID,0.205469,
2010-10-28, 02:03:05,VALID,916.795,VALID,0,VALID,93.2268,VALID,0,VALID,19.5258,VALID,22,VALID,0.2,
2010-10-28, 02:04:05,VALID,916.793,VALID,0,VALID,93.2801,VALID,0,VALID,19.5078,VALID,22,VALID,0.188672,
2010-10-28, 02:05:05,VALID,916.791,VALID,0,VALID,93.3868,VALID,0,VALID,19.4673,VALID,22,VALID,0.160547,
2010-10-28, 02:06:05,VALID,916.785,VALID,0,VALID,93.5393,VALID,0,VALID,19.4283,VALID,22,VALID,0.153125,
2010-10-28, 02:07:05,VALID,916.723,VALID,0,VALID,93.7528,VALID,0,VALID,19.4088,VALID,22,VALID,0.261719,
2010-10-28, 02:08:05,VALID,916.701,VALID,0,VALID,93.7909,VALID,0,VALID,19.3893,VALID,22,VALID,0.317969,
2010-10-28, 02:09:05,VALID,916.709,VALID,0,VALID,93.8443,VALID,0,VALID,19.4298,VALID,22,VALID,0.186328,
2010-10-28, 02:10:05,VALID,916.65,VALID,0,VALID,93.7833,VALID,0,VALID,19.4088,VALID,22,VALID,0.335156,
2010-10-28, 02:11:05,VALID,916.638,VALID,0,VALID,93.9052,VALID,0,VALID,19.4088,VALID,22,VALID,0.0382813,
2010-10-28, 02:12:05,VALID,916.66,VALID,0,VALID,93.829,VALID,0,VALID,19.3893,VALID,22,VALID,0,
2010-10-28, 02:13:05,VALID,916.657,VALID,0,VALID,93.8976,VALID,0,VALID,19.3713,VALID,22,VALID,0,
2010-10-28, 02:14:05,VALID,916.598,VALID,0,VALID,93.9662,VALID,0,VALID,19.3308,VALID,22,VALID,0,
2010-10-28, 02:15:05,VALID,916.593,VALID,0,VALID,94.0043,VALID,0,VALID,19.3323,VALID,22,VALID,0,
2010-10-28, 02:16:05,VALID,916.584,VALID,0,VALID,94.0196,VALID,0,VALID,19.3128,VALID,22,VALID,0,
2010-10-28, 02:17:05,VALID,916.592,VALID,0,VALID,94.1492,VALID,0,VALID,19.3323,VALID,22,VALID,0,
2010-10-28, 02:18:05,VALID,916.586,VALID,0,VALID,94.1873,VALID,0,VALID,19.3323,VALID,22,VALID,0,
2010-10-28, 02:19:05,VALID,916.594,VALID,0,VALID,94.1339,VALID,0,VALID,19.3518,VALID,22,VALID,0,
2010-10-28, 02:20:05,VALID,916.575,VALID,0,VALID,94.0958,VALID,0,VALID,19.3728,VALID,22,VALID,0,
2010-10-28, 02:21:05,VALID,916.565,VALID,0,VALID,94.0653,VALID,0,VALID,19.3533,VALID,22,VALID,0.151953,
2010-10-28, 02:22:05,VALID,916.588,VALID,0,VALID,94.0348,VALID,0,VALID,19.3128,VALID,22,VALID,0,
2010-10-28, 02:23:05,VALID,916.567,VALID,0,VALID,94.1339,VALID,0,VALID,19.2933,VALID,22,VALID,0,
2010-10-28, 02:24:05,VALID,916.549,VALID,0,VALID,94.2026,VALID,0,VALID,19.2933,VALID,22,VALID,0,
2010-10-28, 02:25:05,VALID,916.558,VALID,0,VALID,94.2407,VALID,0,VALID,19.2738,VALID,22,VALID,0,
2010-10-28, 02:26:05,VALID,916.518,VALID,0,VALID,94.233,VALID,0,VALID,19.2738,VALID,22,VALID,0,
2010-10-28, 02:27:05,VALID,916.552,VALID,0,VALID,94.2178,VALID,0,VALID,19.2738,VALID,22,VALID,0,
2010-10-28, 02:28:05,VALID,916.546,VALID,0,VALID,94.294,VALID,0,VALID,19.2738,VALID,22,VALID,0,
2010-10-28, 02:29:05,VALID,916.541,VALID,0,VALID,94.355,VALID,0,VALID,19.2738,VALID,22,VALID,0,
2010-10-28, 02:30:05,VALID,916.54,VALID,0,VALID,94.4008,VALID,0,VALID,19.2738,VALID,22,VALID,0,
2010-10-28, 02:31:05,VALID,916.503,VALID,0,VALID,94.3703,VALID,0,VALID,19.2933,VALID,22,VALID,0.157813,
2010-10-28, 02:32:05,VALID,916.5,VALID,0,VALID,94.3093,VALID,0,VALID,19.2738,VALID,22,VALID,0,
2010-10-28, 02:33:05,VALID,916.498,VALID,0,VALID,94.3321,VALID,0,VALID,19.2528,VALID,22,VALID,0,
2010-10-28, 02:34:05,VALID,916.49,VALID,0,VALID,94.3626,VALID,0,VALID,19.2543,VALID,22,VALID,0,
2010-10-28, 02:35:05,VALID,916.482,VALID,0,VALID,94.3169,VALID,0,VALID,19.2543,VALID,22,VALID,0,
2010-10-28, 02:36:05,VALID,916.466,VALID,0,VALID,94.2864,VALID,0,VALID,19.2348,VALID,22,VALID,0,
2010-10-28, 02:37:05,VALID,916.462,VALID,0,VALID,94.1111,VALID,0,VALID,19.1944,VALID,22,VALID,0,
2010-10-28, 02:38:05,VALID,916.444,VALID,0,VALID,94.1034,VALID,0,VALID,19.1763,VALID,22,VALID,0,
2010-10-28, 02:39:05,VALID,916.435,VALID,0,VALID,94.1644,VALID,0,VALID,19.1568,VALID,22,VALID,0,
2010-10-28, 02:40:05,VALID,916.422,VALID,0,VALID,94.3626,VALID,0,VALID,19.0983,VALID,22,VALID,0,
2010-10-28, 02:41:04,VALID,916.421,VALID,0,VALID,94.5227,VALID,0,VALID,19.0788,VALID,22,VALID,0.250391,
2010-10-28, 02:42:04,VALID,916.411,VALID,0,VALID,94.6066,VALID,0,VALID,19.0398,VALID,22,VALID,0.00820312,
2010-10-28, 02:43:04,VALID,916.406,VALID,0,VALID,94.7667,VALID,0,VALID,19.0398,VALID,22,VALID,0.169922,
2010-10-28, 02:44:04,VALID,916.377,VALID,0,VALID,94.8887,VALID,0,VALID,19.0203,VALID,22,VALID,0.264062,
2010-10-28, 02:45:04,VALID,916.357,VALID,0,VALID,94.9573,VALID,0,VALID,19.0203,VALID,22,VALID,0.360547,
2010-10-28, 02:46:04,VALID,916.335,VALID,0,VALID,94.9573,VALID,0,VALID,19.0203,VALID,22,VALID,0.284375,
2010-10-28, 02:47:04,VALID,916.324,VALID,0,VALID,94.9801,VALID,0,VALID,18.9799,VALID,22,VALID,0.129297,
2010-10-28, 02:48:04,VALID,916.294,VALID,0,VALID,95.0259,VALID,0,VALID,19.0023,VALID,22,VALID,0.226953,
2010-10-28, 02:49:04,VALID,916.293,VALID,0,VALID,95.0183,VALID,0,VALID,18.9814,VALID,22,VALID,0.260547,
2010-10-28, 02:50:04,VALID,916.252,VALID,0,VALID,95.0106,VALID,0,VALID,18.9619,VALID,22,VALID,0.242578,
2010-10-28, 02:51:04,VALID,916.258,VALID,0,VALID,95.064,VALID,0,VALID,18.9229,VALID,22,VALID,0.0492188,
2010-10-28, 02:52:04,VALID,916.283,VALID,0,VALID,95.1174,VALID,0,VALID,18.9229,VALID,22,VALID,0,
2010-10-28, 02:53:04,VALID,916.281,VALID,0,VALID,95.1479,VALID,0,VALID,18.9229,VALID,22,VALID,0,
2010-10-28, 02:54:04,VALID,916.285,VALID,0,VALID,95.2317,VALID,0,VALID,18.9229,VALID,22,VALID,0,
2010-10-28, 02:55:04,VALID,916.287,VALID,0,VALID,95.2241,VALID,0,VALID,18.9229,VALID,22,VALID,0,
2010-10-28, 02:56:04,VALID,916.25,VALID,0,VALID,95.1707,VALID,0,VALID,18.9424,VALID,22,VALID,0,
2010-10-28, 02:57:04,VALID,916.224,VALID,0,VALID,95.0411,VALID,0,VALID,18.9034,VALID,22,VALID,0,
2010-10-28, 02:58:04,VALID,916.226,VALID,0,VALID,94.9573,VALID,0,VALID,18.8824,VALID,22,VALID,0,
2010-10-28, 02:59:04,VALID,916.245,VALID,0,VALID,94.8734,VALID,0,VALID,18.8629,VALID,22,VALID,0.269531,
2010-10-28, 03:00:04,VALID,916.226,VALID,0,VALID,94.9039,VALID,0,VALID,18.824,VALID,22,VALID,0.101563,
2010-10-28, 03:01:04,VALID,916.231,VALID,0,VALID,94.9039,VALID,0,VALID,18.8045,VALID,22,VALID,0.15,
2010-10-28, 03:02:04,VALID,916.244,VALID,0,VALID,95.0411,VALID,0,VALID,18.785,VALID,22,VALID,0.122266,
2010-10-28, 03:03:04,VALID,916.219,VALID,0,VALID,95.1326,VALID,0.107441,VALID,18.7655,VALID,22,VALID,0,
2010-10-28, 03:04:04,VALID,916.193,VALID,0,VALID,95.1326,VALID,0,VALID,18.7474,VALID,22,VALID,0.336719,
2010-10-28, 03:05:04,VALID,916.18,VALID,0,VALID,95.2775,VALID,0,VALID,18.7265,VALID,22,VALID,0.418359,
2010-10-28, 03:06:04,VALID,916.189,VALID,0,VALID,95.2851,VALID,0,VALID,18.707,VALID,22,VALID,0.3625,
2010-10-28, 03:07:04,VALID,916.222,VALID,0,VALID,95.3079,VALID,0,VALID,18.707,VALID,22,VALID,0.384766,
2010-10-28, 03:08:04,VALID,916.242,VALID,0,VALID,95.2927,VALID,0,VALID,18.668,VALID,22,VALID,0.362891,
2010-10-28, 03:09:04,VALID,916.247,VALID,0,VALID,95.3994,VALID,0.107441,VALID,18.668,VALID,22,VALID,0.361719,
2010-10-28, 03:10:04,VALID,916.254,VALID,0,VALID,95.5671,VALID,0,VALID,18.7084,VALID,22,VALID,0.380469,
2010-10-28, 03:11:04,VALID,916.267,VALID,0,VALID,95.529,VALID,0,VALID,18.6485,VALID,22,VALID,0.271094,
2010-10-28, 03:12:04,VALID,916.255,VALID,0,VALID,95.4757,VALID,0.107441,VALID,18.6485,VALID,22,VALID,0.299609,
2010-10-28, 03:13:04,VALID,916.262,VALID,0,VALID,95.59,VALID,0,VALID,18.6499,VALID,22,VALID,0.460938,
2010-10-28, 03:14:04,VALID,916.271,VALID,0,VALID,95.6357,VALID,0,VALID,18.6095,VALID,22,VALID,0.448828,
2010-10-28, 03:15:04,VALID,916.274,VALID,0,VALID,95.6815,VALID,0,VALID,18.6095,VALID,22,VALID,0.544531,
2010-10-28, 03:16:04,VALID,916.248,VALID,0,VALID,95.7577,VALID,0,VALID,18.6109,VALID,22,VALID,0.619922,
2010-10-28, 03:17:04,VALID,916.235,VALID,0,VALID,95.8797,VALID,0,VALID,18.6304,VALID,22,VALID,0.669922,
2010-10-28, 03:18:04,VALID,916.266,VALID,0,VALID,95.9102,VALID,0,VALID,18.6499,VALID,22,VALID,0.705859,
2010-10-28, 03:19:04,VALID,916.272,VALID,0,VALID,95.8645,VALID,0,VALID,18.6485,VALID,22,VALID,0.595703,
2010-10-28, 03:20:04,VALID,916.294,VALID,0,VALID,95.7882,VALID,0,VALID,18.668,VALID,22,VALID,0.557813,
2010-10-28, 03:21:04,VALID,916.26,VALID,0,VALID,95.6434,VALID,0,VALID,18.7279,VALID,22,VALID,0.559766,
2010-10-28, 03:22:04,VALID,916.276,VALID,0,VALID,95.3537,VALID,0,VALID,18.7265,VALID,22,VALID,0.760156,
2010-10-28, 03:23:04,VALID,916.275,VALID,0,VALID,95.0411,VALID,0,VALID,18.8059,VALID,22,VALID,0.394141,
2010-10-28, 03:24:04,VALID,916.265,VALID,0,VALID,94.7362,VALID,0,VALID,18.8254,VALID,22,VALID,0.144531,
2010-10-28, 03:25:04,VALID,916.255,VALID,0,VALID,94.477,VALID,0,VALID,18.824,VALID,22,VALID,0.0214844,
2010-10-28, 03:26:04,VALID,916.259,VALID,0,VALID,94.294,VALID,0,VALID,18.8434,VALID,22,VALID,0.269141,
2010-10-28, 03:27:04,VALID,916.273,VALID,0,VALID,94.1263,VALID,0,VALID,18.8629,VALID,22,VALID,0.255078,
2010-10-28, 03:28:04,VALID,916.293,VALID,0,VALID,93.9281,VALID,0,VALID,18.8824,VALID,22,VALID,0.437109,
2010-10-28, 03:29:04,VALID,916.25,VALID,0,VALID,93.6994,VALID,0,VALID,18.9619,VALID,22,VALID,0.288672,
2010-10-28, 03:30:04,VALID,916.269,VALID,0,VALID,93.5546,VALID,0,VALID,18.9619,VALID,22,VALID,0.263281,
2010-10-28, 03:31:04,VALID,916.251,VALID,0,VALID,93.3945,VALID,0,VALID,18.9799,VALID,22,VALID,0.0449219,
2010-10-28, 03:32:04,VALID,916.25,VALID,0,VALID,93.3487,VALID,0,VALID,18.9994,VALID,22,VALID,0,
2010-10-28, 03:33:04,VALID,916.227,VALID,0,VALID,93.242,VALID,0,VALID,19.0189,VALID,22,VALID,0,
2010-10-28, 03:34:04,VALID,916.208,VALID,0,VALID,93.1276,VALID,0,VALID,19.0384,VALID,22,VALID,0,
2010-10-28, 03:35:04,VALID,916.193,VALID,0,VALID,92.9294,VALID,0,VALID,19.0593,VALID,22,VALID,0,
2010-10-28, 03:36:04,VALID,916.19,VALID,0,VALID,92.8685,VALID,0,VALID,19.0398,VALID,22,VALID,0,
2010-10-28, 03:37:04,VALID,916.169,VALID,0,VALID,93.0743,VALID,0,VALID,19.0203,VALID,22,VALID,0,
2010-10-28, 03:38:04,VALID,916.121,VALID,0,VALID,93.1124,VALID,0,VALID,19.0008,VALID,22,VALID,0.171484,
2010-10-28, 03:39:04,VALID,916.125,VALID,0,VALID,92.9447,VALID,0,VALID,18.9214,VALID,22,VALID,0.170312,
2010-10-28, 03:40:04,VALID,916.124,VALID,0,VALID,93.1048,VALID,0.107441,VALID,18.8824,VALID,22,VALID,0.172656,
2010-10-28, 03:41:04,VALID,916.084,VALID,0,VALID,93.425,VALID,0,VALID,18.8644,VALID,22,VALID,0.216016,
2010-10-28, 03:42:04,VALID,916.076,VALID,0,VALID,93.6689,VALID,0,VALID,18.8449,VALID,22,VALID,0.149609,
2010-10-28, 03:43:04,VALID,916.129,VALID,0,VALID,93.9662,VALID,0,VALID,18.8254,VALID,22,VALID,0.152734,
2010-10-28, 03:44:04,VALID,916.136,VALID,0,VALID,93.8747,VALID,0,VALID,18.8045,VALID,22,VALID,0.520312,
2010-10-28, 03:45:04,VALID,916.116,VALID,0,VALID,93.8061,VALID,0,VALID,18.8045,VALID,22,VALID,0.522656,
2010-10-28, 03:46:04,VALID,916.098,VALID,0,VALID,93.6537,VALID,0,VALID,18.7655,VALID,22,VALID,0.459375,
2010-10-28, 03:47:04,VALID,916.112,VALID,0,VALID,93.6842,VALID,0,VALID,18.7265,VALID,22,VALID,0.350391,
2010-10-28, 03:48:04,VALID,916.14,VALID,0,VALID,93.8595,VALID,0,VALID,18.7279,VALID,22,VALID,0.518359,
2010-10-28, 03:49:04,VALID,916.105,VALID,0,VALID,94.1034,VALID,0,VALID,18.7084,VALID,22,VALID,0.480859,